Regional Weather Roundup
Issued by NWS Upton, NY

Current Version | Previous Version | Text Only | Print | Product List | Glossary On
Versions: 1 2 3 4 5 6 7 8 9 10 11 12 13 14 15 16 17 18 19 20 21 22 23 24 25 26 27 28 29 30 31 32 33 34 35 36 37 38 39 40 41 42 43 44 45 46 47 48 49 50
000
ASUS41 KOKX 301004
RWROKX

REGIONAL WEATHER ROUNDUP
NATIONAL WEATHER SERVICE NEW YORK NY
600 AM EDT SAT JUL 30 2016

NOTE: "FAIR" INDICATES FEW OR NO CLOUDS BELOW 12,000 FEET WITH NO
SIGNIFICANT WEATHER AND/OR OBSTRUCTIONS TO VISIBILITY.

NYZ071-072-176-178-NJZ106-104-301100-
NEW YORK CITY METRO AREA

CITY           SKY/WX    TMP DP  RH WIND       PRES   REMARKS
Central Park   CLEAR     74  67  78 CALM      29.98R
LaGuardia APRT PTCLDY    76  70  82 NE5       29.95R
Kennedy INTL   PTCLDY    73  69  87 SW7       29.96R
Newark/Liberty MOCLDY    74  69  85 VRB6      29.95R
Bronx Bot Gard   N/A     72  68  88 NE2       29.98R
Wall St Helipt SUNNY     73  72  94 W5        29.96R
Teterboro      CLEAR     73  68  84 N3        29.95R
$$

NYZ177-179-078>081-301100-
LONG ISLAND NEW YORK

CITY           SKY/WX    TMP DP  RH WIND       PRES   REMARKS
Farmingdale    CLEAR     72  69  90 CALM      29.96R
MacArthur/ISP  PTCLDY    70  69  97 CALM      29.96R FOG
Shirley        CLEAR     67  66  97 CALM      29.97R FOG
Riverhead      NOT AVBL
Westhampton    CLEAR     64  62  93 CALM      29.98R
Southhampton     N/A     68  66  94 CALM      29.93R
Bridgehampton    N/A     66  66 100 CALM      29.96R
East Hampton   FAIR      65  63  93 CALM      29.96R
Montauk          N/A     69  67  93 CALM      29.98R
$$

NYZ052-065-067-301100-
HUDSON VALLEY

CITY           SKY/WX    TMP DP  RH WIND       PRES   REMARKS
White Plains   CLEAR     70  68  93 NE6       29.97R
Newburgh       CLEAR     68  61  77 CALM      30.00R
Montgomery     PTCLDY    65  64  97 CALM      29.99R
Poughkeepsie   CLEAR     67  61  81 CALM      29.98R
Albany         CLOUDY    64  59  83 CALM      30.02R
$$

NJZ001-105-106-008-010-013-015-019>022-104-301100-
NEW JERSEY

CITY           SKY/WX    TMP DP  RH WIND       PRES   REMARKS
Newark/Liberty MOCLDY    74  69  85 VRB6      29.95R
Teterboro      CLEAR     73  68  84 N3        29.95R
Caldwell       PTCLDY    70  68  93 CALM      29.97R
Morristown     CLOUDY    66  64  94 CALM      29.97R FOG
Somerville     CLOUDY    69  67  93 CALM      29.95R
Linden         FAIR      73  70  91 CALM      29.97S
Sussex         CLOUDY    67  67 100 CALM      29.99R
Abdover          N/A     68  66  93 N3        29.99R
Trenton        CLOUDY    72  69  90 CALM      29.96R
Millville      FOG       71  69  93 CALM      29.96R VSB 1
Atlantic City  CLEAR     71  68  90 S3        29.96S
Wrightstown    CLOUDY    72  70  94 S2        29.93S
Toms River     CLEAR     68  67  96 CALM      29.97R
Belmar         CLEAR     70  69  97 CALM      29.98R
$$

PAZ047>061-062-071-301100-
EASTERN PENNSYLVANIA

CITY           SKY/WX    TMP DP  RH WIND       PRES   REMARKS
Philadelphia   CLOUDY    75  72  90 CALM      29.97R
Allentown      CLOUDY    73  68  84 CALM      29.97R
Scranton       CLOUDY    69  62  78 E3        29.99R
$$

CTZ002-004>006-009-010-012-RIZ004-006-007-MAZ004-011-015-301100-
SOUTHERN NEW ENGLAND
 IN CT

CITY           SKY/WX    TMP DP  RH WIND       PRES   REMARKS
Bradley INTL   PTCLDY    66  60  81 N5        29.99R
Hartford       CLEAR     72  63  73 N5        29.98R
Danbury        PTCLDY    67  66  97 CALM      30.00R FOG
Wtrbury/Oxford   N/A     66  61  82 CALM      30.01R
Bridgeport     CLEAR     73  68  84 NE5       29.97R
Meriden        CLEAR     69  64  84 CALM      29.98R
New Haven      PTCLDY    69  67  93 N3        29.97R
Chester        FOG       68  68 100 N3        29.98R VSB<1/4
Groton         CLEAR     69  66  90 N3        29.96R FOG
Wilimantic     MOCLDY    67  67 100 CALM      29.98R FOG

 IN RI

CITY           SKY/WX    TMP DP  RH WIND       PRES   REMARKS
Providence     MOCLDY    69  66  90 CALM      29.97R
Block Island   CLEAR     69  68  96 NW5       29.98R
Westerly       CLEAR     68  64  87 CALM      29.97R FOG
 IN MA

CITY           SKY/WX    TMP DP  RH WIND       PRES   REMARKS
Boston         CLOUDY    71  65  81 N9        29.97R
Worchester     CLOUDY    68  54  60 N8        30.01R
Westfield      CLEAR     63  60  90 N5        30.00R
Provincetown   FOG       67  67 100 N3        29.96R VSB 1/4
Nantucket      CLOUDY    70  67  90 N9        29.95R
$$

ANZ330-335-338-340-345-350-353-355-301100-
COASTAL MARINE OBSERVATIONS


STATION/POSITION TIME  SKY/WX   TEMP    WIND        PRES    VSBY  WAVE
                                AIR SEA DIR/SP/G                  HT/PER
                 (UTC)          (F)     (DEG/KT/KT) (MB)    (MI)  (FT/S)
NY HARB ENTRANCE 0850            72 72  260/  4/  6 1013.7          2/ 6
20S FIRE ISLAND  0850            74 73  250/  2/  4 1013.5          3/ 6
GREAT SOUTH BAY  0930            76 81  260/  8/  8   N/A
23 SSW MONTAUK P 0850            71 70  280/  8/ 10 1014.3          3/ 7
15 E BARNEGAT LI 0900               78                N/A           3/ 6
HUDSON CANYON    0850            76 77              1013.7          3/ 6
KINGS POINT      0900            73 74              1013.8
EXECUTION ROCKS  0900            73      10/  2/  4   N/A
CENTRAL LI SOUND NOT AVBL
EASTERN LI SOUND 0900            70 69   20/  2/  4   N/A
ROBBINS REEF     0900            74     240/  5/  5 1013.3
$$


>>>>>>>>>>>>>>>>>>>>>>>>>>>> KEY <<<<<<<<<<<<<<<<<<<<<<<<<<<
>                                                          <
>     SKY/WX - Sky Condition/Present Weather               <
>     TMP    - Temperature in Fahrenheit                   <
>     DP     - Dew Point in Fahrenheit                     <
>     RH     - Relative Humidity in Percent                <
>     WIND   - Direction (from) and Speed in MPH           <
>     PRES   - Mean Sea Level Pressure (inches of Hg)      <
>     WCI    - Wind Chill Index                            <
>     VSB    - VISIBILITY IN MILES                         <
>     HX     - HEAT INDEX                                  <
>     TC     - TEMPERATURE IN CELSIUS                      <
>     VRB    - VARIABLE WIND DIRECTION                     <
>                                                          <
>>>>>>>>>>>>>>>>>>>>>>>>>>>> KEY <<<<<<<<<<<<<<<<<<<<<<<<<<<



USA.gov is the U.S. government's official web portal to all federal, state and local government web resources and services.